Weather History for Pierre, SD

Change the Weather History Date:

Thursday, January 23, 2014

  Actual Average Record
Temperature  
Mean Temperature 9 °F 20 °F  
Max Temperature 24 °F 30 °F 68 °F (1981)
Min Temperature -6 °F 10 °F -20 °F (1952)
Degree Days  
Heating Degree Days 56 45  
Month to date heating degree days 1022 1040  
Since 1 July heating degree days 4241 4002  
Cooling Degree Days 0 0  
Month to date cooling degree days 0 0  
Year to date cooling degree days 0 0  
Moisture  
Dew Point -2 °F    
Average Humidity 57    
Maximum Humidity 79    
Minimum Humidity 35    
Precipitation  
Precipitation 0.00 in 0.02 in 0.80 in (1894)
Month to date precipitation 0.09 0.32  
Year to date precipitation 0.09 0.32  
Snow  
Snow 0.00 in 0.10 in 1.60 in (1982)
Month to date snowfall 1.0 3.5  
Since 1 July snowfall 17.2 14.7  
Snow Depth T in    
Sea Level Pressure  
Sea Level Pressure 30.63 in    
Wind  
Wind Speed 8 mph (WSW)    
Max Wind Speed 18 mph    
Max Gust Speed 22 mph    
Visibility 10 miles    
Events      
T = Trace of Precipitation, MM = Missing Value Source: NWS Daily Summary

Daily Weather History Graph

Daily Weather History Graph

Search for Another Location

Airport:

Trip Planner

Search our weather history database for the weather conditions in past years. The results will help you decide how hot, cold, wet, or windy it might be!

Date:

Astronomy

Jan. 23, 2014 Rise Set
Actual Time 8:08 AM CST 5:38 PM CST
Civil Twilight 7:36 AM CST 6:09 PM CST
Nautical Twilight 7:01 AM CST 6:45 PM CST
Astronomical Twilight 6:26 AM CST 7:19 PM CST
Moon 12:28 AM CST (1/23) 11:26 AM CST (1/23)
Length of Visible Light 10h 33m
Length of Day
9h 30m
Waning Gibbous, 55% of the Moon is Illuminated
Jan 23
Waning Gibbous
Jan 23
Last Quarter
Jan 30
New
Feb 6
First Quarter
Feb 14
Full

Hourly Weather History & Observations

Time (CST) Temp. Windchill Dew Point Humidity Pressure Visibility Wind Dir Wind Speed Gust Speed Precip Events Conditions
12:53 AM -2.9 °F -16.5 °F -9.0 °F 75% 30.81 in 10.0 mi NW 6.9 mph - N/A   Clear
1:53 AM -2.9 °F -13.3 °F -9.9 °F 72% 30.82 in 10.0 mi West 4.6 mph - N/A   Clear
2:53 AM -4.0 °F -17.8 °F -9.9 °F 76% 30.83 in 10.0 mi NW 6.9 mph - N/A   Clear
3:53 AM -4.0 °F -19.0 °F -9.9 °F 76% 30.84 in 10.0 mi NNW 8.1 mph - N/A   Clear
4:53 AM -5.1 °F -15.8 °F -11.0 °F 76% 30.85 in 10.0 mi WNW 4.6 mph - N/A   Clear
5:53 AM -5.1 °F - -11.0 °F 76% 30.87 in 10.0 mi Calm Calm - N/A   Clear
6:53 AM -5.1 °F -13.6 °F -11.0 °F 76% 30.87 in 10.0 mi WSW 3.5 mph - N/A   Clear
7:53 AM -4.0 °F -14.6 °F -9.0 °F 79% 30.87 in 10.0 mi SW 4.6 mph - N/A   Clear
8:53 AM -2.9 °F -15.0 °F -7.1 °F 82% 30.86 in 10.0 mi SW 5.8 mph - N/A   Clear
9:53 AM 1.0 °F -8.7 °F -6.0 °F 72% 30.85 in 10.0 mi SW 4.6 mph - N/A   Clear
10:53 AM 5.0 °F -9.1 °F -4.0 °F 66% 30.83 in 10.0 mi SW 9.2 mph - N/A   Clear
11:53 AM 9.0 °F -2.2 °F -2.0 °F 61% 30.79 in 10.0 mi WSW 6.9 mph - N/A   Clear
12:53 PM 15.1 °F 4.2 °F -2.0 °F 47% 30.72 in 10.0 mi SW 8.1 mph - N/A   Clear
1:53 PM 19.0 °F 7.5 °F -4.0 °F 36% 30.66 in 10.0 mi SSW 10.4 mph - N/A   Clear
2:53 PM 21.0 °F 8.6 °F -0.9 °F 38% 30.60 in 10.0 mi SW 12.7 mph - N/A   Clear
3:53 PM 24.1 °F 11.5 °F -0.0 °F 35% 30.55 in 10.0 mi SW 15.0 mph 20.7 mph N/A   Clear
4:53 PM 24.1 °F 15.2 °F 1.9 °F 38% 30.50 in 10.0 mi SSW 8.1 mph - N/A   Clear
5:53 PM 19.9 °F 11.1 °F 5.0 °F 52% 30.45 in 10.0 mi South 6.9 mph - N/A   Clear
6:53 PM 18.0 °F 12.7 °F 6.1 °F 60% 30.42 in 10.0 mi South 3.5 mph - N/A   Clear
7:53 PM 17.1 °F 6.6 °F 6.1 °F 62% 30.35 in 10.0 mi South 8.1 mph - N/A   Clear
8:53 PM 19.9 °F 8.6 °F 7.0 °F 57% 30.29 in 10.0 mi SW 10.4 mph - N/A   Clear
9:53 PM 19.9 °F 10.1 °F 8.1 °F 60% 30.22 in 10.0 mi WSW 8.1 mph - N/A   Clear
10:53 PM 23.0 °F 9.2 °F 9.0 °F 55% 30.18 in 10.0 mi WSW 17.3 mph - N/A   Clear
11:53 PM 24.1 °F 11.0 °F 10.9 °F 57% 30.12 in 10.0 mi WSW 16.1 mph - N/A   Clear